Location: Dal�� Lhota
(48.7500°N, 14.0167°E)
Time: 17:34:45
(UTC+00:00)

Vanguard 3 - Pass Details

Date: 05 August 2021
Orbit: 510 x 3260 km, 33.3° (Epoch: 20 September)

Event Time Altitude Azimuth Distance (km) Brightness Sun altitude
Rises 15:18:51 0° 220° (SW) 4,813 11.8 30.7°
Reaches altitude 10° 15:21:59 10° 211° (SSW) 4,175 11.4 30.2°
Maximum altitude 15:32:24 34° 152° (SSE) 3,563 10.5 28.5°
Drops below altitude 10° 15:47:26 10° 97° (E) 6,042 11.1 26.1°
Sets 15:53:07 0° 90° (E) 7,202 11.4 25.1°
